SKOVDE FLYGPLATS current weather conditions

sailwx.info

Wind from 340 at 6 knots

Air temperature -0.0° C
Visibility: greater than 2.7 NM
Dewpoint -0.0° C
Present weather: Light snow.

Last reported at 2015-Jan-31 16:50 UTC.
Time now 2015-Jan-31 17:41 UTC

Location: N 58°27' E 013°58'.
View on Google Maps.

See reports from other nearby stations

  
Tides and Currents Weather Stations Pressure Air Temp Water Temp Dewpoint Dewpoint Depression Visibility Wind Speed Wind Dir Waves Ship Positions
date/time (UTC)wind fromknots sea level pressurealtimeterstation pressurevisibilityair tempwater tempwave heightnotes
2015-Jan-31 16:50 340 6 2.7-0.0 Light snow.
2015-Jan-31 16:20 330 6 2.7-0.0 Light snow.
2015-Jan-31 15:50 330 6 2.3-0.0 Light snow.
2015-Jan-31 15:20 330 6 1.6-0.0 Light snow.
2015-Jan-31 14:50 320 5 2.1-0.0 Light snow.
2015-Jan-31 14:20 330 5 5.4-0.0 Light snow.
2015-Jan-31 13:50 330 5 5.4-0.0 Light snow.
2015-Jan-31 13:20 320 5 5.4 1.0
2015-Jan-31 12:50 330 5 5.4-0.0
2015-Jan-31 12:20 350 6 5.4 1.0
2015-Jan-31 11:50 350 7 5.4 1.0
2015-Jan-31 11:20 340 8 5.4-0.0
2015-Jan-31 10:50 350 5 5.4-0.0 Light snow.
2015-Jan-31 10:20 340 4 3.8-0.0 Light snow.
2015-Jan-31 09:50 360 5 1.3-0.0 Light snow.
2015-Jan-31 09:20 350 4 4.9-0.0 Light snow.
2015-Jan-31 08:50 340 5 1.8-0.0 Light snow.
2015-Jan-31 08:20 350 5 1.1-0.0 Light snow.
2015-Jan-31 07:50 350 5 1.2-0.0 Light snow.
2015-Jan-31 07:20 350 5 1.0-0.0 Light snow.
2015-Jan-31 06:50 360 5 1.1-0.0 Light snow.
2015-Jan-31 06:20 360 5 1.2-0.0 Light snow.
2015-Jan-31 05:50 360 6 2.0-0.0 Light freezing rain.
2015-Jan-31 05:20 010 5 2.2-0.0 Light snow.
2015-Jan-31 04:50 010 6 1.9-0.0 Light snow.
2015-Jan-31 04:20 020 6 5.4-0.0 Snow grains.
2015-Jan-31 03:50 010 5 5.4-0.0 Precipitation.
2015-Jan-31 03:20 010 6 5.4-0.0 Light drizzle.
2015-Jan-31 02:50 010 6 5.4-0.0 Light rain.
2015-Jan-31 02:20 010 6 3.2-0.0 Light ice pellets.
2015-Jan-31 01:50 020 7 2.1-0.0 Light snow.
2015-Jan-31 01:20 020 8 3.2-0.0 Light freezing rain.
2015-Jan-31 00:50 020 7 2.7-0.0 Light freezing rain.
2015-Jan-31 00:20 020 7 5.4-0.0 Light rain.
2015-Jan-30 23:50 020 8 2.4-0.0 Light rain.
2015-Jan-30 23:20 040 7 2.5-0.0 Light rain.
2015-Jan-30 22:50 060 9 4.3-0.0 Light rain.
2015-Jan-30 22:20 050 6 5.4-0.0 Light rain.
2015-Jan-30 21:50 030 6 2.7-0.0 Light rain.
2015-Jan-30 21:20 040 7 2.2-0.0 Light snow.
2015-Jan-30 20:50 040 6 2.0-0.0 Light snow.
2015-Jan-30 20:20 030 6 1.5-0.0 Light rain snow.
2015-Jan-30 19:50 040 5 2.2-0.0 Light snow.
2015-Jan-30 19:20 040 6 3.2-0.0 Light snow.
2015-Jan-30 18:50 040 5 5.4-0.0 Light snow.
2015-Jan-30 18:20 060 5 5.4 1.0 Light snow.
2015-Jan-30 17:50 060 5 4.9-0.0 Light snow.
2015-Jan-30 17:20 070 5 5.4-0.0 Snow grains.
2015-Jan-30 16:50 070 4 1.7-0.0 Light snow.
2015-Jan-30 16:20 070 5 4.9 1.0 Light snow.
2015-Jan-30 15:50 070 4 5.4-0.0 Light snow.
2015-Jan-30 15:20 050 5 5.4 1.0
2015-Jan-30 14:50 5.4 1.0
2015-Jan-30 14:20 100 5 5.4 1.0
2015-Jan-30 13:50 130 6 5.4 1.0
2015-Jan-30 13:20 130 7 5.4 1.0
2015-Jan-30 12:50 140 6 5.4 1.0
2015-Jan-30 12:20 150 8 5.4 2.0
2015-Jan-30 11:50 160 8 5.4 2.0
2015-Jan-30 11:20 140 5 5.4 1.0
2015-Jan-30 10:50 150 4 5.4 1.0
2015-Jan-30 10:20 150 6 5.4 1.0
2015-Jan-30 09:50 140 5 5.4 1.0
2015-Jan-30 09:20 160 7 5.4 1.0
2015-Jan-30 08:50 160 9 5.4-0.0
2015-Jan-30 08:20 160 8 5.4 1.0
2015-Jan-30 07:50 160 9 5.4-0.0
2015-Jan-30 07:20 160 8 5.4-0.0
2015-Jan-30 06:50 160 8 5.4-0.0
2015-Jan-30 06:20 160 9 5.4-0.0
2015-Jan-30 05:50 160 11 5.4-0.0
2015-Jan-30 05:20 160 8 5.4-1.0
2015-Jan-30 04:50 140 8 5.4-0.0
2015-Jan-30 04:20 160 8 5.4-0.0
2015-Jan-30 03:50 170 6 5.4-1.0
2015-Jan-30 03:20 160 6 5.4-1.0
2015-Jan-30 02:50 160 7 5.4-0.0
2015-Jan-30 02:20 170 9 5.4-0.0
2015-Jan-30 01:50 150 9 5.4-0.0
2015-Jan-30 01:20 160 8 5.4-0.0 Light snow.
2015-Jan-30 00:50 160 8 5.4-0.0
2015-Jan-30 00:20 150 8 5.4-0.0
2015-Jan-29 23:50 160 8 5.4-0.0
2015-Jan-29 23:20 150 8 5.4-0.0
2015-Jan-29 22:50 160 7 5.4-0.0 Freezing precipitation.
2015-Jan-29 22:20 150 6 5.4-1.0
2015-Jan-29 21:50 140 5 5.4-0.0
2015-Jan-29 21:20 150 7 5.4-0.0
2015-Jan-29 20:50 160 7 5.4-0.0
2015-Jan-29 20:20 160 8 5.4-0.0
2015-Jan-29 19:50 160 6 5.4-0.0
2015-Jan-29 19:20 160 7 5.4-0.0
2015-Jan-29 18:50 170 8 5.4-0.0
2015-Jan-29 18:20 160 8 5.4-0.0
2015-Jan-29 17:50 180 9 5.4-0.0
2015-Jan-29 17:20 160 7 5.4 1.0